Change the Weather History Date:

Saturday, December 29, 2012

  Actual Average Record
Temperature  
Mean Temperature 58 °F -  
Max Temperature 71 °F 61 °F 81 °F (2014)
Min Temperature 44 °F 43 °F 30 °F (2010)
Degree Days  
Heating Degree Days 8    
Growing Degree Days 8 (Base 50)    
Moisture  
Dew Point 56 °F    
Average Humidity 78    
Maximum Humidity 94    
Minimum Humidity 48    
Precipitation  
Precipitation 0.31 in - - ()
Sea Level Pressure  
Sea Level Pressure 29.89 in    
Wind  
Wind Speed 13 mph (SW)    
Max Wind Speed 22 mph    
Max Gust Speed 30 mph    
Visibility 8 miles    
Events Rain , Thunderstorm    
Averages and records for this station are not official NWS values.
T = Trace of Precipitation, MM = Missing Value Source: NWS Daily Summary

Daily Weather History Graph

Daily Weather History Graph

Search for Another Location

Airport or City:

Trip Planner

Search our weather history database for the weather conditions in past years. The results will help you decide how hot, cold, wet, or windy it might be!

Date:

Astronomy

Dec. 29, 2012 Rise Set
Actual Time 7:22 AM EST 5:35 PM EST
Civil Twilight 6:56 AM EST 6:02 PM EST
Nautical Twilight 6:26 AM EST 6:32 PM EST
Astronomical Twilight 5:56 AM EST 7:01 PM EST
Moon 7:00 PM EST (12/29) 8:01 AM EST (12/29)
Length of Visible Light 11h 06m
Length of Day
10h 13m
Full, 98% of the Moon is Illuminated
Dec 29
Full
Jan 4
Last Quarter
Jan 11
New
Jan 18
First Quarter
Jan 26
Full

Hourly Weather History & Observations

Time (EST) Temp. Windchill Dew Point Humidity Pressure Visibility Wind Dir Wind Speed Gust Speed Precip Events Conditions
12:08 AM 60.8 °F - 53.6 °F 77% 29.92 in 10.0 mi SSE 9.2 mph - N/A   Overcast
12:53 AM 61.0 °F - 55.0 °F 81% 29.87 in 10.0 mi South 11.5 mph - N/A   Overcast
1:50 AM 60.8 °F - 57.2 °F 88% 29.86 in 10.0 mi South 10.4 mph - 0.00 in Rain Light Rain
1:53 AM 61.0 °F - 57.0 °F 87% 29.85 in 10.0 mi South 10.4 mph - 0.00 in Rain Light Rain
2:23 AM 60.8 °F - 59.0 °F 94% 29.85 in 5.0 mi South 10.4 mph - 0.03 in Rain Light Rain
2:44 AM 62.6 °F - 60.8 °F 94% 29.84 in 6.0 mi SSW 10.4 mph - 0.05 in Rain Light Rain
2:53 AM 62.1 °F - 60.1 °F 93% 29.81 in 6.0 mi South 11.5 mph - 0.05 in   Overcast
3:38 AM 62.6 °F - 60.8 °F 94% 29.80 in 7.0 mi South 11.5 mph - N/A Thunderstorm Thunderstorm
3:53 AM 63.0 °F - 61.0 °F 93% 29.78 in 2.5 mi South 12.7 mph - 0.03 in Rain , Thunderstorm Thunderstorms and Rain
4:02 AM 62.6 °F - 60.8 °F 94% 29.80 in 5.0 mi South 12.7 mph - 0.02 in Rain , Thunderstorm Light Thunderstorms and Rain
4:50 AM 66.2 °F - 64.4 °F 94% 29.79 in 8.0 mi South 15.0 mph 25.3 mph 0.03 in Rain Light Rain
4:53 AM 66.9 °F - 64.9 °F 93% 29.78 in 9.0 mi South 15.0 mph - 0.03 in Rain Light Rain
5:29 AM 68.0 °F - 64.4 °F 88% 29.80 in 10.0 mi South 16.1 mph 23.0 mph 0.00 in   Overcast
5:53 AM 69.1 °F - 64.9 °F 87% 29.81 in 9.0 mi South 12.7 mph - 0.00 in Rain Light Rain
6:28 AM 69.8 °F - 66.2 °F 88% 29.84 in 2.0 mi SSW 15.0 mph - 0.11 in Rain Heavy Rain
6:32 AM 69.8 °F - 66.2 °F 88% 29.84 in 4.0 mi SSW 15.0 mph - 0.12 in Rain Rain
6:53 AM 69.1 °F - 66.9 °F 93% 29.82 in 2.0 mi SSW 12.7 mph - 0.20 in Rain Rain
7:07 AM 69.8 °F - 66.2 °F 88% 29.84 in 3.0 mi South 21.9 mph 28.8 mph N/A Rain Light Rain
7:20 AM 69.8 °F - 66.2 °F 88% 29.83 in 6.0 mi SSW 16.1 mph 26.5 mph N/A Rain Light Rain
7:26 AM 69.8 °F - 66.2 °F 88% 29.83 in 7.0 mi South 15.0 mph 24.2 mph N/A   Overcast
7:50 AM 69.8 °F - 66.2 °F 88% 29.84 in 9.0 mi SSW 11.5 mph - N/A   Overcast
7:53 AM 69.1 °F - 66.0 °F 90% 29.83 in 9.0 mi SSW 11.5 mph - N/A   Overcast
8:27 AM 69.8 °F - 66.2 °F 88% 29.86 in 10.0 mi SW 11.5 mph - 0.00 in   Overcast
8:53 AM 71.1 °F - 66.9 °F 87% 29.86 in 10.0 mi WSW 15.0 mph - 0.00 in Rain Light Rain
9:39 AM 71.6 °F - 66.2 °F 83% 29.88 in 10.0 mi WSW 15.0 mph - N/A   Overcast
9:53 AM 71.1 °F - 66.0 °F 84% 29.87 in 10.0 mi WSW 11.5 mph - N/A   Overcast
10:15 AM 71.6 °F - 64.4 °F 78% 29.89 in 10.0 mi WSW 15.0 mph 20.7 mph N/A   Overcast
10:30 AM 69.8 °F - 62.6 °F 78% 29.90 in 10.0 mi WNW 17.3 mph 24.2 mph N/A   Overcast
10:53 AM 68.0 °F - 61.0 °F 78% 29.91 in 10.0 mi WNW 18.4 mph 25.3 mph N/A   Mostly Cloudy
11:53 AM 64.0 °F - 55.9 °F 75% 29.91 in 10.0 mi WNW 15.0 mph 23.0 mph N/A   Overcast
12:53 PM 63.0 °F - 51.1 °F 65% 29.91 in 10.0 mi WNW 15.0 mph 21.9 mph N/A   Overcast
1:53 PM 64.0 °F - 45.0 °F 50% 29.90 in 10.0 mi West 16.1 mph 24.2 mph N/A   Mostly Cloudy
2:53 PM 63.0 °F - 45.0 °F 52% 29.91 in 10.0 mi WNW 13.8 mph 20.7 mph N/A   Mostly Cloudy
3:53 PM 62.1 °F - 42.1 °F 48% 29.94 in 10.0 mi WNW 10.4 mph 18.4 mph N/A   Mostly Cloudy
4:53 PM 61.0 °F - 41.0 °F 48% 29.95 in 10.0 mi West 10.4 mph - N/A   Mostly Cloudy
5:53 PM 57.9 °F - 39.9 °F 51% 29.98 in 10.0 mi WNW 6.9 mph - N/A   Mostly Cloudy
6:53 PM 55.9 °F - 39.9 °F 55% 30.02 in 10.0 mi WNW 10.4 mph 20.7 mph N/A   Mostly Cloudy
7:53 PM 52.0 °F - 37.9 °F 59% 30.06 in 10.0 mi NW 15.0 mph - N/A   Mostly Cloudy
8:53 PM 48.9 °F - 35.1 °F 59% 30.09 in 10.0 mi NW 20.7 mph 29.9 mph N/A   Mostly Cloudy
9:53 PM 46.0 °F 38.0 °F 32.0 °F 58% 30.14 in 10.0 mi NW 21.9 mph 27.6 mph N/A   Mostly Cloudy
10:53 PM 44.1 °F 39.0 °F 30.0 °F 58% 30.16 in 10.0 mi WNW 9.2 mph 19.6 mph N/A   Scattered Clouds
11:53 PM 44.1 °F 38.1 °F 30.0 °F 58% 30.17 in 10.0 mi NW 11.5 mph 20.7 mph N/A   Scattered Clouds